Theta_e
313 313 314 314 314 315 315 315 316 319 321 321 322 325 326 329 335 340 341 338 342 350 349 346 351 344 341 343 347 345 353 356 344 344 343 342 346 345 345 343 342 343 346 348 347
313 313 314 314 314 315 315 315 316 318 321 321 322 325 329 332 333 340 341 341 347 347 340 341 343 345 339 344 349 345 351 349 341 341 342 341 343 345 344 343 343 344 346 348 348
314 314 314 314 314 315 315 315 316 317 320 322 322 325 330 333 340 341 341 339 344 342 339 343 345 339 343 345 348 351 352 344 344 343 343 342 344 345 345 345 344 345 348 348 347
314 314 314 314 314 315 315 315 316 316 318 322 323 325 331 335 341 339 340 343 342 338 343 343 345 346 343 348 346 349 350 342 344 343 344 344 346 346 346 345 344 343 347 348 347
315 315 315 315 315 315 315 315 316 316 317 320 323 325 330 332 338 336 338 344 342 346 350 352 347 345 349 349 346 344 340 342 342 343 343 344 345 345 346 345 344 344 346 346 346
315 315 315 315 315 315 315 315 316 316 317 319 321 323 326 333 344 339 336 338 343 346 350 350 352 347 344 344 341 341 342 340 341 341 343 345 344 344 345 345 344 344 345 346 346
315 315 315 315 316 316 316 316 316 316 317 317 319 321 328 336 341 346 338 337 347 348 348 345 349 353 344 343 343 341 341 344 342 343 343 345 347 345 343 343 344 344 344 344 345
315 315 315 316 316 316 316 316 316 316 316 317 318 319 329 337 342 348 341 341 342 348 349 345 345 350 348 342 342 343 341 346 344 344 342 342 346 344 343 343 343 344 344 344 344
315 315 315 315 316 317 316 316 316 316 316 316 317 319 328 335 340 345 347 345 346 347 348 349 352 350 342 342 342 341 343 345 346 344 345 340 345 344 344 344 343 343 344 344 344
316 316 315 316 316 317 316 322 319 318 316 316 317 325 330 335 338 341 340 345 347 347 347 350 351 345 335 335 342 344 343 344 348 342 342 346 342 344 343 343 344 344 344 345 343
318 317 316 316 316 316 325 328 327 325 322 325 320 322 332 334 337 339 338 341 347 345 341 341 336 338 340 339 341 343 343 343 342 343 341 343 344 344 343 343 343 343 345 345 345
317 318 317 316 316 317 323 324 325 324 324 324 325 326 325 326 324 331 330 337 342 341 339 336 337 337 335 337 340 343 344 343 344 345 340 340 344 343 341 343 343 344 346 346 346
315 317 318 316 317 323 323 323 322 323 324 325 324 323 326 326 326 329 329 332 340 338 338 337 338 338 337 336 335 334 341 342 342 345 341 341 345 345 341 343 343 344 346 347 347
313 316 317 317 318 322 323 322 323 322 318 321 323 323 324 327 326 330 329 336 333 336 336 336 337 336 334 334 334 332 335 337 342 343 343 341 348 344 343 340 342 344 344 347 348
310 313 316 318 316 319 324 322 322 323 318 325 323 325 324 327 330 331 333 330 330 329 332 332 335 333 333 333 333 333 334 333 334 333 332 344 340 344 342 341 341 343 344 345 346
310 311 315 317 318 320 323 322 323 319 321 325 325 323 322 325 327 331 332 332 331 329 329 330 333 332 331 332 331 332 332 330 326 326 330 332 335 335 344 342 341 342 342 344 345
310 311 314 316 319 323 321 323 319 322 322 322 321 320 322 321 323 325 327 327 326 331 330 330 331 330 331 331 331 332 327 329 331 328 330 329 332 335 342 341 340 341 341 342 344
311 312 315 316 319 321 321 317 324 324 322 320 321 320 323 320 322 321 323 325 322 327 328 331 333 331 331 330 331 330 328 328 332 331 330 328 333 334 337 342 341 341 341 341 342
318 315 324 322 322 320 322 317 319 322 321 319 318 321 321 322 324 322 321 320 321 322 327 327 330 330 329 331 330 332 332 326 328 327 329 330 331 332 336 341 341 341 341 341 341
324 326 325 322 321 322 315 316 318 320 320 319 320 319 319 318 320 321 322 323 323 322 321 322 326 328 333 330 330 330 330 332 325 333 336 332 333 332 332 336 340 341 342 341 342
322 325 324 321 321 322 316 316 320 322 322 321 320 319 319 319 320 321 323 323 321 321 322 320 320 322 325 327 329 328 329 329 327 327 331 332 332 330 329 328 334 341 342 341 342
321 323 325 325 321 316 314 319 322 322 325 321 321 321 321 320 319 320 323 321 322 321 320 322 319 321 321 322 328 328 328 328 331 330 327 328 333 331 330 329 336 340 340 341 342
326 327 326 324 315 314 316 318 321 319 319 320 321 321 321 321 321 318 320 322 322 320 321 322 320 319 321 322 323 327 326 326 325 323 327 329 331 329 330 329 331 336 339 340 340
323 317 321 322 319 316 315 317 317 320 320 320 320 320 319 319 319 320 321 322 326 325 326 325 318 319 320 321 321 324 325 326 325 325 330 328 329 328 330 333 329 334 336 336 338
317 317 316 313 313 313 314 316 318 318 320 321 320 320 321 323 322 323 323 322 322 326 325 320 320 321 319 320 323 324 324 324 325 326 328 330 327 327 327 332 332 332 334 332 335
316 314 315 315 315 312 312 315 317 318 318 319 320 321 318 320 322 320 319 319 321 323 323 320 324 319 322 322 323 326 326 325 323 325 326 327 329 326 334 336 335 336 333 333 334
309 312 316 315 313 312 313 315 318 318 319 320 320 319 320 321 320 322 321 321 319 320 323 322 321 322 325 323 324 324 324 325 323 323 325 327 326 330 327 330 332 338 336 335 335
Wind_Speed
12 11 10 9 8 8 8 8 8 8 9 10 10 11 12 11 6 3 4 10 14 19 13 11 8 8 13 4 1 4 3 3 5 7 4 19 18 26 21 29 24 7 29 35 32
13 12 12 11 10 9 8 8 8 8 9 10 11 12 13 12 3 4 6 11 17 20 11 14 11 6 4 5 3 2 1 5 6 7 6 13 18 24 19 22 17 23 31 36 32
13 13 13 12 11 10 9 8 8 8 9 10 11 12 14 15 4 5 10 11 16 18 9 13 14 16 10 8 8 6 5 7 14 17 18 13 19 30 26 14 31 35 39 36 33
15 14 13 13 12 11 10 9 8 7 8 9 10 11 13 8 1 8 9 12 12 15 8 7 8 6 6 7 13 4 19 8 14 17 18 16 27 18 25 18 32 31 38 39 34
16 15 15 13 13 12 11 10 8 7 8 8 9 10 11 7 3 6 9 12 20 13 10 12 6 6 3 6 6 9 3 13 14 20 13 24 18 15 20 30 30 29 33 32 31
16 16 16 15 14 13 12 11 9 6 7 7 7 8 8 5 2 6 8 12 13 10 8 9 5 8 5 4 4 6 5 4 12 18 16 21 21 16 21 30 27 29 29 29 29
18 17 16 16 15 13 12 11 9 7 7 6 7 8 10 10 7 7 10 8 5 6 6 10 12 13 8 6 2 3 6 5 8 5 5 26 7 14 29 28 27 26 25 26 28
19 18 18 17 15 14 13 11 9 7 7 6 6 8 9 4 11 13 9 11 14 14 13 7 7 16 7 13 4 3 5 3 3 5 2 6 6 15 32 29 26 27 27 25 24
20 19 18 17 16 14 12 11 9 6 7 6 5 6 9 5 19 17 15 12 11 19 21 21 20 11 5 2 4 5 3 4 3 6 3 4 6 20 32 30 27 27 27 22 27
21 20 18 17 17 14 10 11 5 4 3 4 7 3 14 20 19 23 20 19 16 16 23 26 12 9 0 4 6 6 5 5 8 4 3 6 7 20 30 29 28 28 26 28 30
21 20 18 15 15 13 9 5 5 2 9 11 9 14 12 11 16 20 22 26 26 23 6 13 4 7 14 14 12 12 9 11 10 9 6 10 10 17 25 24 23 28 28 35 33
21 20 18 14 10 6 9 8 9 13 12 20 22 26 29 24 13 23 15 23 17 8 5 6 7 16 10 16 10 17 15 18 8 9 4 6 13 13 19 23 25 31 35 38 34
20 20 18 12 5 3 8 14 9 13 5 18 27 30 35 27 21 27 17 26 11 7 7 6 15 14 11 15 5 13 20 17 12 6 1 7 5 5 11 22 26 30 40 41 40
19 18 17 11 2 5 5 7 3 10 4 8 4 10 20 20 9 26 20 16 3 9 7 8 12 8 15 11 3 10 4 9 14 6 7 7 5 10 15 16 19 29 31 38 42
18 17 13 12 10 4 9 8 4 7 3 3 5 2 12 18 8 18 29 18 8 10 4 12 9 12 9 9 2 13 7 2 10 10 5 12 2 6 11 14 19 29 35 42 47
17 15 12 11 9 4 9 7 4 5 4 8 5 3 7 10 11 11 15 20 15 5 4 9 11 5 9 14 4 9 7 5 6 4 2 9 10 4 15 26 23 32 39 42 45
15 11 10 8 3 3 8 2 5 3 7 9 6 8 3 7 5 7 8 7 6 1 6 8 8 7 6 7 14 3 6 3 4 4 6 4 4 12 26 23 27 31 39 43 46
14 7 4 3 1 1 4 5 2 4 2 5 6 9 6 8 6 5 2 10 7 8 5 8 12 6 7 8 11 10 8 5 5 2 7 5 5 7 18 35 40 41 43 42 42
11 4 8 11 9 3 4 4 6 3 3 8 10 6 6 5 3 9 5 4 5 4 9 7 9 8 6 10 9 12 5 9 5 1 2 5 11 7 6 20 26 30 31 35 43
12 6 6 7 5 3 5 3 4 4 7 4 3 3 5 8 7 6 3 1 9 11 3 6 6 8 15 4 6 8 5 3 3 2 4 6 6 6 6 12 16 19 29 35 46
7 4 4 5 4 0 3 6 6 16 16 3 3 3 4 3 3 4 4 7 13 10 15 2 4 8 3 5 9 5 3 1 3 5 6 4 6 6 7 9 18 21 36 39 44
7 3 5 3 1 2 1 4 6 10 22 5 3 4 3 5 3 2 1 3 22 11 9 4 1 3 10 11 7 7 9 8 7 8 4 5 10 6 10 16 23 29 34 41 44
9 7 1 4 4 4 9 6 8 11 7 7 7 4 2 4 6 4 1 10 11 9 5 5 3 6 12 8 5 1 5 7 3 4 7 5 7 4 4 7 23 28 38 39 41
7 4 7 8 7 4 6 6 9 17 9 12 4 7 7 7 2 6 7 8 19 16 18 4 0 6 6 9 5 7 7 4 3 3 9 9 10 9 8 4 7 26 41 47 42
9 5 8 5 6 12 5 3 8 10 15 19 9 11 6 6 9 6 7 12 17 15 15 3 3 2 8 9 5 6 10 9 4 6 5 11 11 10 10 9 21 35 38 39 41
5 6 7 9 12 10 6 6 9 16 6 8 9 12 7 2 3 10 7 9 6 5 8 5 5 6 6 5 8 13 14 13 6 5 6 7 14 8 11 9 13 13 23 37 45
14 10 6 8 8 3 0 6 12 17 10 15 15 9 10 13 29 26 23 22 15 7 3 3 3 5 6 7 6 8 7 3 7 6 6 5 11 16 7 10 17 24 30 30 44
Wind_Direction
15 9 6 0 356 349 348 351 351 345 338 342 351 356 1 13 26 121 164 107 143 133 131 141 157 147 103 115 219 77 70 277 168 106 127 99 121 151 140 136 152 202 155 156 153
13 6 1 358 351 345 342 343 344 338 329 336 346 354 355 357 10 209 122 127 152 142 116 137 145 166 142 117 235 287 28 244 163 143 137 131 121 135 133 148 129 128 151 154 160
12 6 358 354 348 341 336 337 335 333 323 329 341 349 349 352 119 166 124 142 157 148 162 126 146 173 171 184 195 213 245 124 137 155 137 149 118 140 126 143 148 149 155 158 163
3 1 356 349 345 338 332 328 326 324 315 320 332 343 347 3 169 174 124 148 168 162 184 89 110 136 143 185 192 227 245 149 164 150 151 167 135 149 145 160 159 158 162 165 172
356 353 350 346 339 335 327 321 317 312 305 310 321 334 342 328 256 196 160 161 186 195 238 291 339 119 226 214 226 231 99 136 144 160 141 141 146 132 136 152 154 160 167 178 182
351 346 344 341 336 330 325 318 310 299 291 296 306 317 323 302 215 216 212 187 202 239 285 306 301 326 285 268 156 146 80 116 151 125 121 116 123 120 149 154 159 170 183 189 190
346 341 337 335 331 327 320 316 307 290 273 276 289 299 292 283 224 247 246 225 215 238 276 357 298 281 348 299 92 80 75 25 131 123 87 117 106 143 157 161 167 183 192 195 202
341 338 335 332 327 323 317 309 298 283 265 254 255 277 261 258 240 234 222 218 229 248 257 246 272 269 234 289 35 46 67 69 278 154 159 128 194 157 165 167 179 192 202 207 213
338 335 332 330 324 320 318 306 293 272 258 243 229 231 262 257 217 236 242 247 255 248 254 261 257 241 255 156 30 12 214 202 213 255 150 121 135 178 174 175 186 199 202 206 173
335 333 330 329 324 321 332 323 304 277 275 268 214 255 241 210 227 230 253 258 238 256 244 234 241 235 57 95 208 205 243 233 191 208 255 139 176 172 183 181 191 202 202 191 175
333 331 329 328 326 326 18 39 12 65 308 250 245 222 243 224 225 234 242 246 250 257 276 288 198 224 238 212 210 197 216 228 220 186 159 194 166 181 192 192 190 202 193 185 189
331 329 328 330 325 330 8 24 25 330 296 274 255 254 246 255 284 237 233 239 228 233 268 338 267 271 286 292 211 186 218 247 291 138 142 206 193 191 192 198 197 191 189 193 197
328 326 327 332 309 314 358 17 356 342 273 283 250 236 236 233 233 250 257 229 199 225 238 202 260 300 285 309 321 198 204 234 223 128 244 122 326 205 214 202 205 199 197 198 198
324 323 328 336 277 324 31 353 348 336 39 278 243 246 217 211 247 235 246 236 171 215 248 237 272 285 307 299 327 318 265 174 188 123 199 169 229 217 213 206 205 206 204 197 201
324 316 319 318 307 329 332 325 296 330 4 252 226 274 191 175 142 236 236 246 209 255 128 267 275 282 290 272 335 276 292 177 174 176 126 202 115 255 192 212 208 209 208 206 203
329 310 306 305 310 329 339 323 321 44 265 346 10 315 105 208 230 237 234 241 260 216 238 236 265 232 251 287 232 271 303 10 54 136 349 193 203 254 193 209 204 210 211 208 206
334 302 296 292 266 354 331 9 48 136 330 345 329 330 263 194 252 181 219 239 200 219 286 297 266 264 255 310 301 71 48 340 346 8 227 240 129 235 209 205 199 201 207 208 206
340 315 298 315 323 305 353 54 115 265 1 299 332 337 36 17 344 325 186 223 229 180 213 228 275 247 252 195 247 272 161 162 218 251 268 285 245 273 206 200 204 202 203 205 203
6 21 105 88 67 52 33 74 207 258 334 340 331 16 340 23 321 31 348 238 304 187 199 173 259 270 215 238 145 279 243 192 139 149 40 271 299 300 207 194 198 201 201 198 203
20 71 132 94 85 47 67 251 266 277 316 357 3 5 328 324 38 18 318 163 355 35 48 279 262 226 255 160 250 160 218 246 354 195 250 287 280 246 164 193 196 197 199 199 206
32 63 121 97 92 60 137 237 282 291 293 235 282 306 309 6 353 358 304 311 24 337 345 255 184 275 336 178 222 295 283 158 134 143 183 261 264 221 238 186 196 198 201 201 204
34 45 161 245 358 6 170 243 292 340 15 358 64 32 34 318 323 307 356 268 343 350 335 303 241 332 252 272 214 180 215 209 215 264 235 179 263 237 243 217 186 190 196 206 208
8 339 246 296 61 338 319 305 359 6 334 2 350 46 345 2 348 306 300 319 349 357 347 314 338 341 341 350 24 308 239 201 194 95 202 194 259 300 344 193 192 178 193 200 189
14 13 343 52 83 24 346 316 330 326 322 334 292 348 359 335 255 280 322 2 5 339 10 343 205 167 209 234 259 297 298 253 182 129 230 218 247 281 292 240 226 184 188 181 179
26 38 8 327 332 337 339 311 346 355 360 13 360 24 34 329 336 20 338 336 343 4 2 42 264 279 273 257 279 272 295 302 207 211 176 269 209 234 220 211 234 197 192 185 184
38 5 340 297 310 340 353 357 354 337 342 341 2 342 354 308 261 306 316 329 255 351 345 332 281 346 290 321 331 310 298 291 240 269 273 256 258 196 211 180 188 242 200 189 193
25 4 330 309 341 19 318 334 338 5 315 353 332 334 333 336 321 306 294 276 259 272 295 255 28 350 274 351 329 316 263 347 298 263 222 286 287 294 251 207 199 171 185 206 203